User: anonymous   Login
Location: Newark
(47.1000°N, 5.3000°E)
Time: 20:40:25
(UTC+00:00)
Language:

VELOX 1 - Orbit

View from above orbital plane
View from above orbital plane
View from above satellite
View from above satellite

Ground track
Ground track

The orbit data is extracted from the following two-line orbital elements,

1 40057U 14034E   19343.49642371  .00000249  00000-0  42403-4 0  9996
2 40057  98.2558 110.5628 0011638  42.4987 317.7119 14.77762125293433
Epoch (UTC): 09 December 2019 11:54:51
Eccentricity: 0.0011638
inclination: 98.2558°
perigee height: 628 km
apogee height: 644 km
right ascension of ascending node: 110.5628°
argument of perigee: 42.4987°
revolutions per day: 14.77762125
mean anomaly at epoch: 317.7119°
orbit number at epoch: 29343

The dashed part of the orbit path shows where the satellite is in the earth's shadow,  

DLR